Regional Weather Roundup
Issued by NWS

Home | Current Version | Previous Version | Graphics & Text | Print | Product List | Glossary On
Versions: 1 2 3 4 5 6 7 8 9 10 11 12 13 14 15 16 17 18 19 20 21 22 23 24 25 26 27 28 29 30 31 32 33 34 35 36 37 38 39 40 41 42 43 44 45 46 47 48 49 50
000
ASUS45 KTFX 252010
RWRMT
MONTANA REGIONAL WEATHER ROUNDUP
NATIONAL WEATHER SERVICE GREAT FALLS MT
200 PM MDT SAT MAR 25 2017

NOTE: "FAIR" INDICATES FEW OR NO CLOUDS BELOW 12000 FEET WITH NO
SIGNIFICANT WEATHER AND/OR OBSTRUCTIONS TO VISIBILITY.

MTZ001>007-043-252100-
WEST OF THE DIVIDE

CITY           SKY/WX    TMP DP  RH WIND       PRES   REMARKS
KALISPELL      CLOUDY    49  31  49 S12G21    29.95F
MISSOULA       LGT RAIN  45  36  70 NW8       30.00F
BUTTE          CLOUDY    44  21  40 NW10      29.95F
MULLAN PASS    FOG       30  28  92 VRB7      29.95S VSB 1   WCI  23
ANACONDA         N/A     45  21  39 S5        29.96F
DEER LODGE       N/A     45  25  45 CALM      29.98F
EUREKA           N/A     48  27  43 S21G31    29.95S
HAMILTON         N/A     48  25  40 S8        29.98F
$$

MTZ008-052>055-252100-
SOUTHWEST MONTANA

CITY           SKY/WX    TMP DP  RH WIND       PRES   REMARKS
BOZEMAN        CLOUDY    48  28  46 CALM      29.96F
DILLON         PTSUNNY   48  22  35 SW14      29.94F
W YELLOWSTONE  CLOUDY    34  32  93 S14G24    29.98F FOG     WCI  24
ENNIS          CLOUDY    45  25  45 CALM      30.00F
THREE FORKS      N/A     50  50 100 CALM      29.96F
$$

MTZ009-010-012-014-046-048-049-054-252100-
EAST SLOPES AND CENTRAL MONTANA

CITY           SKY/WX    TMP DP  RH WIND       PRES   REMARKS
CUT BANK       CLOUDY    46  22  38 SW22G28   29.89F
GREAT FALLS    MOSUNNY   52  19  27 W12G23    29.92F
MALMSTROM AFB  MOSUNNY   52  21  29 W13       29.92F
HELENA         PTSUNNY   51  24  34 W14G21    29.93F
AUGUSTA        PTSUNNY   48  19  31 W9        29.91F
BOWMANS CRNR     N/A     47  18  32 SW13G24   29.91F
CHOTEAU          N/A     54  18  24 SW17G23   29.91F
CONRAD           N/A     51  23  33 S3        29.94F
FAIRFIELD      PTSUNNY   52  17  25 W16G24    29.90F
POWER          PTSUNNY   49  19  29 SW7       29.90F
RAYNESFORD       N/A     51  19  29 W14       29.93F
$$

MTZ011-013-016-021-045-047-050-051-252100-
NORTH CENTRAL MONTANA

CITY           SKY/WX    TMP DP  RH WIND       PRES   REMARKS
HAVRE          SUNNY     57  25  29 SW16G22   29.89F
LEWISTOWN      MOSUNNY   51  17  26 VRB3      29.92F
N BAR RANCH      N/A     52  21  30 E13       29.94F
CHINOOK          N/A     57  21  24 W15G22    29.88F
DENTON         PTSUNNY   53  19  26 N7        29.88F
FORT BENTON      N/A     57  18  21 MISG      29.91F
GEYSER           N/A     52  18  25 W17G24    29.91F
GRASS RANGE      N/A     53  19  26 W12       29.89F
STANFORD         N/A     51  15  23 NW15G22   29.91F
WINIFRED         N/A     52  20  28 W3        29.91F
$$

MTZ017>020-022>027-061-062-252100-
NORTHEAST MONTANA

CITY           SKY/WX    TMP DP  RH WIND       PRES   REMARKS
GLASGOW        SUNNY     58  26  29 NW15      29.88F
JORDAN           N/A     60  22  23 VRB7      29.90F
SIDNEY         CLOUDY    57  29  34 NW13      29.90F
WOLF POINT     MOSUNNY   62  28  27 W14G22    29.88F
MALTA          SUNNY     57  27  30 NW15G24   29.88F
PLENTYWOOD       N/A     57  28  33 W10       29.85F
POPLAR           N/A     59  28  31 W8        29.88F
SCOBEY           N/A     58  26  29 W14       29.85S
$$

MTZ028>42-056>058-252100-
SOUTHCENTRAL AND SOUTHEAST MONTANA

CITY           SKY/WX    TMP DP  RH WIND       PRES   REMARKS
BAKER          CLOUDY    59  31  34 N12       29.91F
BILLINGS       CLOUDY    53  26  35 NW12      29.95F
LIVINGSTON     CLOUDY    47  29  49 N6        29.95F
MILES CITY     CLOUDY    57  27  31 W10       29.93F
FORSYTH          N/A     55  28  35 CALM      29.94F
HARLOWTON      PTSUNNY   51  19  29 W24       29.92F
LAUREL           N/A     52  24  33 NW3       29.95F
ROUNDUP          N/A     54  19  25 S9        29.85F
$$

REGIONAL REPORTS...DAKOTAS

CITY           SKY/WX    TMP DP  RH WIND       PRES   REMARKS
WILLISTON      CLOUDY    59  27  29 W14       29.88F
MINOT          MOSUNNY   49  36  61 S14G23    29.89F
DICKINSON      MOSUNNY   59  29  31 N6        29.87F
BEACH            N/A    N/A N/A N/A MISG        N/A
TIOGA          PTSUNNY   54  37  54 W15       29.87F
WATFORD CITY     N/A     55  32  41 NW14      29.88F
BISMARCK       CLOUDY    49  34  56 S13       29.97F
GRAND FORKS    CLOUDY    36  33  89 S14       30.11F WCI  27
FARGO          CLOUDY    38  33  82 S15       30.11F WCI  29
BUFFALO SD       N/A     62  32  32 NE14G20   29.82F
RAPID CITY     CLOUDY    65  31  28 NW12      29.86F
$$

REGIONAL REPORTS...WYOMING/IDAHO/WASHINGTON

CITY           SKY/WX    TMP DP  RH WIND       PRES   REMARKS
GILLETTE         N/A     57  33  40 N13       29.90F
SHERIDAN       CLOUDY    48  40  73 NW12      29.96F
BUFFALO WY     CLOUDY    53  34  48 NW14G23   29.95F
CODY           PTSUNNY   49  29  46 N14       29.94F
YELLOWSTONE LA   N/A     37  24  59 MISG      29.97F
IDAHO FALLS    CLOUDY    45  35  68 SW15      29.99F
SALMON         CLOUDY    46  25  42 NW5       29.97F
BOISE          SUNNY     53  33  46 N7        30.05F
SPOKANE        PTSUNNY   48  30  49 SW20      30.00F
$$

REGIONAL REPORTS...ALBERTA

CITY           SKY/WX    TMP DP  RH WIND       PRES   REMARKS
EDMONTON       SUNNY     41  30  65 S2        29.74S
CALGARY        PTSUNNY   52   5  15 W9G20     29.73F
LETHBRIDGE     MOSUNNY   54  23  30 SW20G33   29.83F
MEDICINE HAT   PTSUNNY   59  25  27 SW23      29.80F
WATERTON GATE    N/A     45  27  49 S12G20      N/A
CARDSTON         N/A     46  23  39 W13G21      N/A
MILK RIVER       N/A     54  21  28 W24G35      N/A
$$

REGIONAL REPORTS...SASKATCHEWAN

CITY           SKY/WX    TMP DP  RH WIND       PRES   REMARKS
SWIFT CURRENT  MOSUNNY   52  32  46 NW20G25   29.80S
REGINA         MOSUNNY   55  36  47 W29G36    29.77R
SASKATOON      CLOUDY    41  36  81 W18       29.77R
CYPRESS HILLS    N/A     48  18  29 W10G18      N/A
ROCKGLEN         N/A     55  23  28 W17G26      N/A
ASSINIBOIA       N/A     36  27  69 S3          N/A
$$



USA.gov is the U.S. government's official web portal to all federal, state and local government web resources and services.